Showing default

LOPEN, 60473

Orbit data source: Space-Track

LOPEN, 60473 is an American payload satellite in SSO that was launched on Fri, 16 Aug 2024 UTC via an FALCON 9 launch vehicle from the Air Force Western Test Range (AFWTR). Payload-class satellites include a variety of spacecraft equipped with specific instruments for various scientific and technological missions. These include communications satellites like Starlink; space stations such as the ISS; scientific satellites like the Hubble; Earth observation satellites from companies like Planet Labs, Umbra, and HawkEye 360; GPS; miniature CubeSats for education and research; and military/defense satellites.

Loading next visibility...
Identifier
60473, 2024-149F
Orbit
SSO
Country
Flag of USUS
Related business
Manufacturer
ARRAY
Mission
Operational Commercial Technology
Bus & Motor
CUBESAT 1.5U, Unknown motor
Mass
1.83 kg wet, 1.83 kg dry
Launch date (UTC)
2024-08-16 (1 year ago)
Launch vehicle
FALCON 9
Launch site
Air Force Western Test Range (AFWTR)
Object type
Payload
Rocket body
Debris
Shape & HBR
Box, 0.1 m
Radar Cross Section
0.015 m², Small (<0.1 m²)

Expand to show TLE details & history
Last TLE update: 14 hours ago

TLE from 14 hours ago
0 LOPEN
1 60473U 24149F   25289.16883880  .00015824  00000-0  52850-3 0  9991
2 60473  97.4013   6.8294 0002661  68.4897 291.6627 15.31111599 64810
Epoch: 2025-10-16T04:03Z
TLE epoch observation values (Epoch: 2025-10-16T04:03:07.672Z)
Latitude
-0.00008°
Longitude
-78.88498°
Altitude
474.927 km
Speed
7.629 km/s
True Right ascension
00h 27m 19s
True Declination
0° 00' 00"
Sunlit
Object was in full shadow at epoch
Visualization orbit readout
Latitude
Unknown
Longitude
Unknown
Altitude
Unknown
Speed
Unknown
Apparent Right ascension
Unknown
Apparent Declination
Unknown
Sunlit
N/A
Visualization observer readout
Local Sidereal Time
12:32:40
Azimuth
Unknown
Elevation
Unknown
Doppler factor
Unknown
Orbital elements
Apogee altitude
471.268 km
Perigee altitude
467.623 km
Semi-major axis
6,847.582 km
Eccentricity
0.00027
Inclination
97.4013°
RAAN
6.8294°
Arg. of periapsis
68.4897°
True anomaly
291.63436°
Mean anomaly
291.6627°
Eccentric anomaly
291.64853°
Mean motion
3.83034 °/min
Orbital period
93.99 mins
BSTAR
0.0005285
Loading maneuver chart data...
Computing Atmospheric mass density...
Loading historical data...
Loading historical data...
Loading historical data...
Loading historical data...
Loading historical data...
Loading historical data...
Loading historical data...

Documentation

Showing up to 5 results
|